Location: Feydey
(46.3431°N, 7.0106°E)
Time: 09:27:47
(UTC+00:00)

Cosmos 1943 Rocket - Visible Passes

Search period start: 28 October 2021 00:00
Search period end: 07 November 2021 00:00
Orbit: 810 x 845 km, 71.0° (Epoch: 27 October)

Date Brightness Start Highest point End Pass type
(mag) Time Alt. Az. Time Alt. Az. Time Alt. Az.
28 Oct 4.1 19:12:18 10° N 19:14:17 18° N 19:14:17 18° N visible
28 Oct 5.0 20:55:36 10° NNW 20:55:47 11° NNW 20:55:47 11° NNW visible
29 Oct 3.9 18:53:10 10° N 18:55:32 19° NNE 18:55:32 19° NNE visible
29 Oct 4.8 20:36:20 10° NNW 20:37:03 14° NNW 20:37:03 14° NNW visible
30 Oct 3.8 18:34:03 10° N 18:36:49 19° NNE 18:36:49 19° NNE visible
30 Oct 4.5 20:17:06 10° NNW 20:18:21 17° NNW 20:18:21 17° NNW visible
31 Oct 3.8 18:14:56 10° N 18:18:10 19° NNE 18:18:10 19° NNE visible
31 Oct 4.2 19:57:51 10° NNW 19:59:41 21° NNW 19:59:41 21° NNW visible
01 Nov 3.7 17:55:51 10° N 17:59:32 18° NE 17:59:32 18° NE visible
01 Nov 3.9 19:38:37 10° NNW 19:41:04 27° NNW 19:41:04 27° NNW visible
02 Nov 3.7 17:36:46 10° N 17:40:17 16° NE 17:40:58 16° NE visible
02 Nov 3.4 19:19:24 10° NNW 19:22:30 33° NNW 19:22:30 33° NNW visible
03 Nov 3.8 17:17:44 10° N 17:20:55 15° NE 17:22:27 14° ENE visible
03 Nov 3.0 19:00:12 10° NNW 19:04:00 42° N 19:04:00 42° N visible
03 Nov 5.0 20:44:57 10° NW 20:45:32 12° WNW 20:45:32 12° WNW visible
04 Nov 3.9 16:58:43 10° N 17:01:33 14° NE 17:04:02 11° ENE visible
04 Nov 2.5 18:40:59 10° NNW 18:45:35 50° NNE 18:45:35 50° NNE visible
04 Nov 4.7 20:25:31 10° NW 20:27:08 16° WNW 20:27:08 16° WNW visible
05 Nov 4.0 16:39:45 10° N 16:42:10 13° NE 16:44:35 10° ENE visible
05 Nov 2.3 18:21:47 10° NNW 18:27:16 52° NE 18:27:16 52° NE visible
05 Nov 4.3 20:06:07 10° NW 20:08:49 22° WNW 20:08:49 22° WNW visible
06 Nov 2.4 18:02:36 10° NNW 18:08:04 46° ENE 18:09:05 42° E visible
06 Nov 3.9 19:46:44 10° NW 19:50:39 28° W 19:50:39 28° W visible
